Regional Weather Roundup
Issued by NWS

Home | Current Version | Previous Version | Graphics & Text | Print | Product List | Glossary On
Versions: 1 2 3 4 5 6 7 8 9 10 11 12 13 14 15 16 17 18 19 20 21 22 23 24 25 26 27
000
ASUS45 KBOU 240907
RWRCO

WEATHER ROUNDUP FOR COLORADO
NATIONAL WEATHER SERVICE DENVER/BOULDER CO
300 AM MDT WED AUG 24 2016

NOTE: "FAIR" INDICATES FEW OR NO CLOUDS BELOW 12000 FEET WITH NO
SIGNIFICANT WEATHER AND/OR OBSTRUCTIONS TO VISIBILITY.

COZ001>005-013-030-031-241000-
...NORTHWEST COLORADO...

CITY           SKY/WX    TMP DP  RH WIND       PRES   REMARKS
CRAIG          FAIR      51  46  83 CALM      30.25S
HAYDEN         FAIR      54  41  62 S3        30.26F
MEEKER         FAIR      49  45  86 NE3       30.26F
MOUNT WERNER   NOT AVBL
STEAMBOAT SPGS MOCLDY    53  43  70 NE3       30.27F
WALDEN         CLOUDY    50  37  62 SE5       30.36S
$$

COZ006>008-011-241000-
...WEST CENTRAL VALLEYS...

CITY           SKY/WX    TMP DP  RH WIND       PRES   REMARKS
GRAND JUNCTION FAIR      64  49  57 E14       30.19S
MONTROSE       MOCLDY    56  51  84 SW5       30.27S
EAGLE          FAIR      55  46  71 S3        30.30S
RIFLE          FAIR      56  54  93 E6        30.24S
DELTA          NOT AVBL
NUCLA          CLOUDY    54  54 100 CALM      30.31S
$$

COZ017>023-064>068-241000-
...SOUTHWEST COLORADO...

CITY           SKY/WX    TMP DP  RH WIND       PRES   REMARKS
DURANGO        CLOUDY    52  46  80 CALM      30.29S
CORTEZ         MOCLDY    54  52  93 NE5       30.26F
PAGOSA SPRINGS CLOUDY    48  48  99 NE3       30.35R
TELLURIDE      DRIZZLE   46  44  91 CALM      30.42F
WOLF CREEK PAS CLOUDY    36  36 100 SW10      30.56S
$$

COZ009-010-012-014-032>034-037-058>063-241000-
...CENTRAL COLORADO...

CITY           SKY/WX    TMP DP  RH WIND       PRES   REMARKS
ASPEN          CLOUDY    49  47  93 SW5       30.33F
BUENA VISTA    CLOUDY    48  43  83 NW7       30.36F
COPPER MTN     LGT RAIN  39  34  81 SE3       30.54F
BERTHOUD PASS  CLOUDY    34  21  60 SE6       30.58F WCI  29
COTTONWOOD PAS CLOUDY    46  41  81 SW6       30.44F
GUNNISON       FAIR      50  45  81 CALM      30.37F
KREMMLING      FAIR      52  43  71 CALM      30.34S
LEADVILLE      LGT RAIN  40  37  89 CALM      30.44F
MONARCH PASS   FOG       36  36 100 E9        30.62F VSB<1/4
SALIDA         CLOUDY    52  46  80 CALM      30.43S
SUNLIGHT       FAIR      43  39  87 SW5       30.51F
WILKERSON PASS DRIZZLE   37  36  93 S8        30.54S
$$

COZ069>075-241000-
...SAN LUIS VALLEY/SANGRE DE CRISTO MOUNTAINS...

CITY           SKY/WX    TMP DP  RH WIND       PRES   REMARKS
ALAMOSA        FAIR      45  44  97 W5        30.31F
LA VETA PASS   MOCLDY    43  37  81 E5        30.45S
SAGUACHE       FAIR      52  46  82 N7        30.34S
$$

COZ035-036-038>040-241000-
...NORTHERN COLORADO FRONT RANGE...

CITY           SKY/WX    TMP DP  RH WIND       PRES   REMARKS
DENVER INTL AP CLOUDY    65  43  44 SW10      30.16S
DMNS CITY PARK   N/A     65  44  46 S6        30.15F
AURORA         MOCLDY    63  45  52 SW7       30.18S
FRONT RANGE AP NOT AVBL
ERIE MUNI ARPT FAIR      68  39  34 E3        30.13F
BOULDER MUN AP MOCLDY    70  39  32 SW5       30.14F
CENTENNIAL     CLOUDY    63  42  46 SW9       30.19F
BROOMFIELD     FAIR      68  37  32 W13       30.17S
FORT COLLINS   FAIR      70  39  32 S9        30.11F
LONGMONT       FAIR      70  41  34 CALM      30.14F
$$

COZ041-046-047-076>085-087-088-241000-
...PIKES PEAK/PALMER DIVIDE AND SOUTHERN FOOTHILLS...

CITY           SKY/WX    TMP DP  RH WIND       PRES   REMARKS
COLO. SPRINGS  CLOUDY    61  43  51 E12       30.23R
A. F. ACADEMY  CLOUDY    61  41  47 S5        30.23R
SCHRIEVER AFB  NOT AVBL
ELLICOTT       NOT AVBL
FALCON         CLOUDY    57  43  59 NE5       30.28S
FORT CARSON    NOT AVBL
LIMON          CLOUDY    62  43  49 NE7       30.18F
MONUMENT HILL  CLOUDY    55  41  58 E13       30.29S
TRINIDAD       FAIR      55  50  83 W13       30.21F
$$

COZ042>045-048>051-090-091-241000-
...NORTHEAST COLORADO...

CITY           SKY/WX    TMP DP  RH WIND       PRES   REMARKS
GREELEY ARPT   FAIR      70  46  43 W5        30.12S
AKRON          FAIR      64  40  41 SE6       30.16R
BURLINGTON     CLOUDY    67  43  41 N17       30.09F
WRAY           NOT AVBL
STERLING       MOCLDY    63  43  48 CALM      30.12R
HOLYOKE        FAIR      63  43  48 NE8       30.10R
FORT MORGAN    CLOUDY    64  40  40 E6        30.15R
$$

COZ086-089-092>099-241000-
...SOUTHEAST COLORADO...

CITY           SKY/WX    TMP DP  RH WIND       PRES   REMARKS
PUEBLO         MOCLDY    63  52  67 SW8       30.15R
LA JUNTA       FAIR      63  54  72 W12       30.09F
LAMAR          FAIR      63  53  70 W7        30.02S
SPRINGFIELD      N/A     64  48  56 NW17      30.07S
$$




USA.gov is the U.S. government's official web portal to all federal, state and local government web resources and services.